| time (UTC) | temp C | wind direction | speed KPH | gust KPH | rain 1hr cm | rain 24hr cm | rain mn cm | humidity % | barometer mb |
| 20260503224808 | 7 | 290 | 8.0 | 0.0 | 0.00 | 0.00 | 0.00 | 62 | 1019.0 |
| 20260503223320 | 7 | 290 | 8.0 | 0.0 | 0.00 | 0.00 | 0.00 | 62 | 1019.0 |
| 20260503221824 | 7 | 280 | 9.7 | 0.0 | 0.00 | 0.00 | 0.00 | 66 | 1019.0 |
| 20260503220350 | 7 | 280 | 9.7 | 0.0 | 0.00 | 0.00 | 0.00 | 66 | 1019.0 |
| 20260503214815 | 7 | 270 | 8.0 | 0.0 | 0.00 | 0.00 | 0.00 | 66 | 1019.0 |
| 20260503213308 | 7 | 270 | 8.0 | 0.0 | 0.00 | 0.00 | 0.00 | 66 | 1019.0 |
| 20260503211808 | 8 | 280 | 11.3 | 0.0 | 0.00 | 0.00 | 0.00 | 62 | 1019.0 |
| 20260503210308 | 8 | 280 | 11.3 | 0.0 | 0.00 | 0.00 | 0.00 | 62 | 1019.0 |
| 20260503204815 | 7 | 270 | 4.8 | 0.0 | 0.00 | 0.00 | 0.00 | 66 | 1019.0 |
| 20260503203423 | 7 | 270 | 4.8 | 0.0 | 0.00 | 0.00 | 0.00 | 66 | 1019.0 |
| 20260503201808 | 7 | 1.6 | 0.0 | 0.00 | 0.00 | 0.00 | 66 | 1019.0 | |
| 20260503200317 | 7 | 1.6 | 0.0 | 0.00 | 0.00 | 0.00 | 66 | 1019.0 | |
| 20260503194833 | 8 | 260 | 8.0 | 0.0 | 0.00 | 0.00 | 0.00 | 62 | 1019.0 |
| 20260503193423 | 8 | 260 | 8.0 | 0.0 | 0.00 | 0.00 | 0.00 | 62 | 1019.0 |
| 20260503191808 | 10 | 290 | 1.6 | 0.0 | 0.00 | 0.00 | 0.00 | 58 | 1019.0 |
| 20260503190308 | 10 | 290 | 1.6 | 0.0 | 0.00 | 0.00 | 0.00 | 58 | 1019.0 |
| 20260503184922 | 8 | 3.2 | 0.0 | 0.00 | 0.00 | 0.00 | 66 | 1019.0 | |
| 20260503183307 | 8 | 3.2 | 0.0 | 0.00 | 0.00 | 0.00 | 66 | 1019.0 | |
| 20260503181808 | 12 | 0 | 0.0 | 0.0 | 0.00 | 0.00 | 0.00 | 51 | 1018.0 |
| 20260503180307 | 12 | 0 | 0.0 | 0.0 | 0.00 | 0.00 | 0.00 | 51 | 1018.0 |
| 20260503174828 | 15 | 1.6 | 0.0 | 0.00 | 0.00 | 0.00 | 42 | 1018.0 | |
| 20260503173332 | 15 | 1.6 | 0.0 | 0.00 | 0.00 | 0.00 | 42 | 1018.0 | |
| 20260503171808 | 16 | 190 | 8.0 | 0.0 | 0.00 | 0.00 | 0.00 | 36 | 1018.0 |
| 20260503170308 | 16 | 190 | 8.0 | 0.0 | 0.00 | 0.00 | 0.00 | 36 | 1018.0 |
| 20260503150308 | 17 | 1.6 | 0.0 | 0.00 | 0.00 | 0.00 | 30 | 1019.0 | |
| 20260503130308 | 17 | 4.8 | 0.0 | 0.00 | 0.00 | 0.00 | 34 | 1020.0 | |
| 20260503110329 | 16 | 120 | 9.7 | 0.0 | 0.00 | 0.00 | 0.00 | 31 | 1022.0 |
| 20260503090329 | 13 | 100 | 12.9 | 0.0 | 0.00 | 0.00 | 0.00 | 33 | 1023.0 |
| 20260503080318 | 12 | 90 | 9.7 | 0.0 | 0.00 | 0.00 | 0.00 | 33 | 1023.0 |
| 20260503071810 | 12 | 60 | 8.0 | 0.0 | 0.00 | 0.00 | 0.00 | 47 | 1023.0 |
| 20260503070309 | 12 | 60 | 8.0 | 0.0 | 0.00 | 0.00 | 0.00 | 47 | 1023.0 |
| 20260503060308 | 7 | 90 | 9.7 | 0.0 | 0.00 | 0.00 | 0.00 | 62 | 1023.0 |
| 20260503054808 | 7 | 3.2 | 0.0 | 0.00 | 0.00 | 0.00 | 71 | 1023.0 | |
| 20260503053308 | 7 | 3.2 | 0.0 | 0.00 | 0.00 | 0.00 | 71 | 1023.0 | |
| 20260503051808 | 5 | 3.2 | 0.0 | 0.00 | 0.00 | 0.00 | 76 | 1023.0 | |
| 20260503050308 | 5 | 3.2 | 0.0 | 0.00 | 0.00 | 0.00 | 76 | 1023.0 | |
| 20260503044808 | 3 | 3.2 | 0.0 | 0.00 | 0.00 | 0.00 | 75 | 1023.0 | |
| 20260503043309 | 3 | 3.2 | 0.0 | 0.00 | 0.00 | 0.00 | 75 | 1023.0 | |
| 20260503041808 | 2 | 90 | 8.0 | 0.0 | 0.00 | 0.00 | 0.00 | 81 | 1022.0 |
| 20260503040331 | 2 | 90 | 8.0 | 0.0 | 0.00 | 0.00 | 0.00 | 81 | 1022.0 |
| 20260503034810 | 2 | 110 | 8.0 | 0.0 | 0.00 | 0.00 | 0.00 | 81 | 1022.0 |
| 20260503033308 | 2 | 110 | 8.0 | 0.0 | 0.00 | 0.00 | 0.00 | 81 | 1022.0 |
| 20260503031808 | 2 | 70 | 4.8 | 0.0 | 0.00 | 0.00 | 0.00 | 75 | 1022.0 |
| 20260503030308 | 2 | 70 | 4.8 | 0.0 | 0.00 | 0.00 | 0.00 | 75 | 1022.0 |
| 20260503024823 | 3 | 70 | 8.0 | 0.0 | 0.00 | 0.00 | 0.00 | 65 | 1022.0 |
| 20260503023308 | 3 | 70 | 8.0 | 0.0 | 0.00 | 0.00 | 0.00 | 65 | 1022.0 |
| 20260503021808 | 3 | 1.6 | 0.0 | 0.00 | 0.00 | 0.00 | 70 | 1022.0 | |
| 20260503020308 | 3 | 1.6 | 0.0 | 0.00 | 0.00 | 0.00 | 70 | 1022.0 | |
| 20260503014808 | 3 | 30 | 3.2 | 0.0 | 0.00 | 0.00 | 0.00 | 70 | 1022.0 |
| 20260503013308 | 3 | 30 | 3.2 | 0.0 | 0.00 | 0.00 | 0.00 | 70 | 1022.0 |
| 20260503011808 | 5 | 60 | 4.8 | 0.0 | 0.00 | 0.00 | 0.00 | 66 | 1022.0 |
| 20260503010308 | 5 | 60 | 4.8 | 0.0 | 0.00 | 0.00 | 0.00 | 66 | 1022.0 |
| 20260503004808 | 7 | 3.2 | 0.0 | 0.00 | 0.00 | 0.00 | 57 | 1022.0 | |
| 20260503003308 | 7 | 3.2 | 0.0 | 0.00 | 0.00 | 0.00 | 57 | 1022.0 | |
| 20260503001808 | 6 | 3.2 | 0.0 | 0.00 | 0.00 | 0.00 | 66 | 1022.0 | |
| 20260503000308 | 6 | 3.2 | 0.0 | 0.00 | 0.00 | 0.00 | 66 | 1022.0 | |
| 20260502234808 | 6 | 3.2 | 0.0 | 0.00 | 0.00 | 0.00 | 66 | 1022.0 | |
| 20260502233308 | 6 | 3.2 | 0.0 | 0.00 | 0.00 | 0.00 | 66 | 1022.0 | |
| 20260502231808 | 7 | 1.6 | 0.0 | 0.00 | 0.00 | 0.00 | 57 | 1022.0 | |
| 20260502230308 | 7 | 1.6 | 0.0 | 0.00 | 0.00 | 0.00 | 57 | 1022.0 |